Terug naar catalogus

COSMOS 2251 DEB

ActiefLEO
NORAD 34588·DEBRIS·🇷🇺 Russia

Gelanceerd Jun 16, 1993 vanaf Plesetsk Cosmodrome

Loading…

Volgende Passages (komende 24 uur)

TLE

VersSource: Space-Track

Epoch: Sep 14, 2026, 09:05 UTC

1 34588U 93036WA  26257.37902009  .00000699  00000-0  21759-3 0  9992
2 34588  74.0415 117.1818 0017894 107.9422  66.8741 14.42675932919242

Volg COSMOS 2251 DEB in realtime met AllMySat

Download on the App Store